Massena, NY

2:37 AM EST on February 21, 2018 (GMT -0500)
Massena International-Richards

Weather History for KMSS - September, 2012

Change the Weather History Date:

Wednesday, September 19, 2012

  Actual Average Record
Temperature  
Mean Temperature 50 °F 57 °F  
Max Temperature 61 °F 68 °F 87 °F (1955)
Min Temperature 38 °F 46 °F 28 °F (2014)
Degree Days  
Heating Degree Days 15 8  
Month to date heating degree days 75 106  
Since 1 July heating degree days 98 181  
Cooling Degree Days 0 1  
Month to date cooling degree days 32 24  
Year to date cooling degree days 537 360  
Moisture  
Dew Point 40 °F    
Average Humidity 70    
Maximum Humidity 100    
Minimum Humidity 40    
Precipitation  
Precipitation 0.00 in 0.12 in 0.75 in (1952)
Month to date precipitation 3.73 2.24  
Year to date precipitation 21.45 24.78  
Sea Level Pressure  
Sea Level Pressure 29.99 in    
Wind  
Wind Speed 8 mph (West)    
Max Wind Speed 24 mph    
Max Gust Speed 35 mph    
Visibility 10 miles    
Events      
T = Trace of Precipitation, MM = Missing Value Source: NWS Daily Summary

Daily Weather History Graph

Daily Weather History Graph

Search for Another Location

Airport or City:

Trip Planner

Search our weather history database for the weather conditions in past years. The results will help you decide how hot, cold, wet, or windy it might be!

Date:

Astronomy

Sep. 19, 2012 Rise Set
Actual Time 6:43 AM EDT 7:01 PM EDT
Civil Twilight 6:14 AM EDT 7:31 PM EDT
Nautical Twilight 5:39 AM EDT 8:05 PM EDT
Astronomical Twilight 5:03 AM EDT 8:40 PM EDT
Moon 11:04 AM EDT (9/19) 8:54 PM EDT (9/19)
Length of Visible Light 13h 16m
Length of Day
12h 18m
Waxing Crescent, 17% of the Moon is Illuminated
Sep 19
Waxing Crescent
Sep 22
First Quarter
Sep 29
Full
Oct 8
Last Quarter
Oct 15
New

Hourly Weather History & Observations

Time (EDT) Temp. Windchill Dew Point Humidity Pressure Visibility Wind Dir Wind Speed Gust Speed Precip Events Conditions
12:51 AM 50.0 °F - 46.4 °F 87% 29.69 in 10.0 mi West 16.1 mph 24.2 mph 0.02 in   Overcast
12:53 AM 50.0 °F - 46.9 °F 89% 29.70 in 10.0 mi West 16.1 mph 24.2 mph 0.02 in   Overcast
1:20 AM 48.2 °F - 46.4 °F 93% 29.72 in 10.0 mi West 13.8 mph 21.9 mph N/A   Overcast
1:53 AM 48.9 °F - 44.1 °F 83% 29.75 in 10.0 mi West 19.6 mph 29.9 mph N/A   Overcast
2:05 AM 48.2 °F - 42.8 °F 82% 29.76 in 10.0 mi West 18.4 mph 34.5 mph N/A   Overcast
2:53 AM 46.9 °F - 43.0 °F 86% 29.79 in 10.0 mi West 11.5 mph 23.0 mph N/A   Overcast
3:51 AM 46.4 °F 40.7 °F 42.8 °F 87% 29.82 in 10.0 mi West 12.7 mph 20.7 mph N/A   Scattered Clouds
3:53 AM 46.0 °F 40.6 °F 41.0 °F 83% 29.82 in 10.0 mi West 11.5 mph 20.7 mph N/A   Partly Cloudy
4:30 AM 46.4 °F 39.5 °F 39.2 °F 76% 29.84 in 10.0 mi WSW 17.3 mph 24.2 mph N/A   Mostly Cloudy
4:53 AM 46.9 °F - 43.0 °F 86% 29.86 in 10.0 mi WSW 10.4 mph - N/A   Overcast
5:53 AM 46.9 °F - 39.0 °F 74% 29.91 in 10.0 mi WSW 10.4 mph 19.6 mph N/A   Overcast
6:53 AM 46.0 °F 41.4 °F 39.9 °F 79% 29.94 in 10.0 mi WSW 9.2 mph - N/A   Overcast
7:53 AM 46.9 °F - 39.0 °F 74% 29.98 in 10.0 mi West 13.8 mph 18.4 mph N/A   Overcast
8:53 AM 48.0 °F - 39.0 °F 71% 30.01 in 10.0 mi West 9.2 mph - N/A   Overcast
9:53 AM 50.0 °F - 39.0 °F 66% 30.04 in 10.0 mi West 11.5 mph - N/A   Mostly Cloudy
10:04 AM 51.8 °F - 39.2 °F 62% 30.03 in 10.0 mi WSW 6.9 mph - N/A   Mostly Cloudy
10:53 AM 53.1 °F - 41.0 °F 64% 30.05 in 10.0 mi West 9.2 mph - N/A   Overcast
11:53 AM 55.9 °F - 41.0 °F 57% 30.08 in 10.0 mi WSW 10.4 mph - N/A   Scattered Clouds
12:53 PM 55.9 °F - 37.9 °F 51% 30.09 in 10.0 mi WSW 10.4 mph - N/A   Mostly Cloudy
1:53 PM 55.9 °F - 37.9 °F 51% 30.10 in 10.0 mi West 9.2 mph - N/A   Scattered Clouds
2:53 PM 59.0 °F - 37.0 °F 44% 30.10 in 10.0 mi NW 13.8 mph - N/A   Partly Cloudy
3:53 PM 60.1 °F - 37.0 °F 42% 30.12 in 10.0 mi West 8.1 mph - N/A   Clear
4:53 PM 59.0 °F - 36.0 °F 42% 30.14 in 10.0 mi WSW 5.8 mph - N/A   Clear
5:53 PM 57.9 °F - 35.1 °F 42% 30.15 in 10.0 mi WSW 5.8 mph - N/A   Scattered Clouds
6:53 PM 53.1 °F - 39.9 °F 61% 30.17 in 10.0 mi Calm Calm - N/A   Clear
7:53 PM 46.0 °F - 41.0 °F 83% 30.18 in 10.0 mi Calm Calm - N/A   Clear
8:53 PM 42.8 °F - 39.2 °F 87% 30.19 in 10.0 mi Calm Calm - N/A   Clear
9:53 PM 42.1 °F - 39.9 °F 92% 30.21 in 10.0 mi Calm Calm - N/A   Clear
10:53 PM 39.9 °F - 39.0 °F 97% 30.22 in 9.0 mi Calm Calm - N/A   Clear
11:53 PM 43.0 °F - 41.0 °F 93% 30.21 in 10.0 mi Calm Calm - N/A   Clear